Hourly Data Report for September 26, 2004

SHERBROOKE A
QUEBEC

45°26'00.000" N
71°41'00.000" W
241.40 m
7028124
71610
YSC

Download Data

Hourly Data (September 2004)
Hourly Data Report for September 26, 2004
TIME
LST
Temp Definition
°C
Dew Point Definition
°C
Rel Hum Definition
%
Precip. Amount Definition
mm

Wind Dir Definition
10's deg

Wind Spd Definition
km/h
Visibility Definition
km
Stn Press Definition
kPa
Hmdx Definition


Wind Chill Definition


Weather Definition


00:00 12.5 10.5 88   30 7 15.0 98.70      
01:00 11.1 10.0 93   28 7 15.0 98.75      
02:00 10.3 9.1 92   35 4 15.0 98.78      
03:00 10.1 7.1 82   34 4 15.0 98.81      
04:00 7.9 6.2 89     0 15.0 98.84      
05:00 6.4 5.5 94     0 15.0 98.91      
06:00 9.2 7.5 89   26 6 15.0 99.01      
07:00 9.7 7.3 85   28 4 24.1 99.06     Mainly Clear
08:00 11.1 6.4 73   30 7 24.1 99.10     Mainly Clear
09:00 12.4 5.0 61   29 9 24.1 99.12     Mainly Clear
10:00 14.0 6.9 62   31 15 24.1 99.11     Mainly Clear
11:00 15.5 7.8 60   25 11 24.1 99.09     Mainly Clear
12:00 16.3 7.3 55   29 15 24.1 99.04     Mainly Clear
13:00 17.6 8.3 54   27 11 24.1 99.00     Mainly Clear
14:00 18.1 7.9 51   25 19 24.1 98.94     Mainly Clear
15:00 18.1 8.5 53   28 15 24.1 98.95     Mainly Clear
16:00 17.4 8.2 55   27 13 24.1 98.96     Mainly Clear
17:00 16.1 8.2 59   26 9 15.0 98.98      
18:00 11.5 7.5 76   23 6 15.0 99.02      
19:00 9.4 7.1 86   21 6 15.0 99.07      
20:00 8.3 7.1 92     0 15.0 99.11      
21:00 7.3 6.0 91   7 4 15.0 99.12      
22:00 7.0 6.2 95   10 4 15.0 99.12      
23:00 7.1 6.2 94   9 6 15.0 99.14      

Notes on Data Quality.

Legend

  • E = Estimated
  • M = Missing
  • NA = Not Available*
  • [empty] = Indicates an unobserved value
Date modified: